SCP
0 0 0 0 0 0 0 0 0 0 0 0 0 0 0 0 0 0 0 0 0 0 0 0 0 0 0 0 0 0 0 0 0 0 0 1 1 1
0 0 0 0 0 0 0 0 0 0 0 0 0 0 0 0 0 0 0 0 0 0 0 0 0 0 0 0 0 0 0 0 0 0 0 0 1 1
0 0 0 0 0 0 0 0 0 0 0 0 0 0 0 0 0 0 0 0 0 0 0 0 0 0 0 0 0 0 0 0 0 0 0 0 0 0
0 0 0 0 0 0 0 0 0 0 0 0 0 0 0 0 0 0 0 0 0 0 0 0 0 0 0 0 0 0 0 0 0 0 0 0 0 0
0 0 0 0 0 0 0 0 0 0 0 0 0 0 0 0 0 0 0 0 0 0 0 0 0 0 0 0 0 0 0 0 0 0 0 0 0 0
0 0 0 0 0 0 0 0 0 0 0 0 0 0 0 0 1 1 0 0 0 0 0 0 0 0 0 0 0 0 0 0 0 0 0 0 0 0
0 0 0 0 0 0 0 0 0 0 0 0 0 0 0 0 1 1 0 0 0 0 0 0 0 0 0 0 0 0 0 0 0 0 0 0 0 0
0 0 0 0 0 0 0 0 0 0 0 0 0 0 0 0 1 1 0 0 0 0 0 0 0 0 0 0 0 0 0 0 0 0 0 0 0 0
0 0 0 0 0 0 0 0 0 0 0 0 0 0 0 0 0 1 0 0 0 0 0 0 0 0 0 0 0 0 0 0 0 0 0 0 0 0
0 0 0 0 0 0 0 0 0 0 0 0 0 0 0 0 0 0 0 0 0 0 0 0 0 0 0 0 0 0 0 0 0 0 0 0 0 0
0 0 0 0 0 0 0 0 0 0 0 0 0 0 0 0 0 0 0 0 0 0 0 0 0 0 0 0 0 0 0 0 0 0 0 0 0 0
0 0 0 0 0 0 0 0 0 0 0 0 0 0 0 0 0 0 0 0 0 0 0 0 0 0 0 0 0 0 0 0 0 0 0 0 0 0
0 0 0 0 0 0 0 0 0 0 0 0 0 0 0 0 0 0 0 0 0 0 0 0 0 0 0 0 0 0 0 0 0 0 0 0 0 0
0 0 0 0 0 0 0 0 0 0 0 0 0 0 0 0 0 0 0 0 0 0 0 0 0 0 0 0 0 0 0 0 0 0 0 0 0 0
0 0 0 0 0 0 0 0 0 0 0 0 0 0 0 0 0 0 0 0 0 0 0 0 0 0 0 0 0 0 0 0 0 0 0 0 0 0
0 0 0 0 0 0 0 0 0 0 0 0 0 0 0 0 0 0 0 0 0 0 0 0 0 0 0 0 0 0 0 0 0 0 0 0 0 0
0 0 0 0 0 0 0 0 0 0 0 0 0 0 0 0 0 0 0 0 0 0 0 0 0 0 0 0 0 0 0 0 0 0 0 0 0 0
0 0 0 0 0 0 0 0 0 0 0 0 0 0 0 0 0 0 0 0 0 0 0 0 0 0 0 0 0 0 0 0 0 0 0 0 0 0
0 0 0 0 0 0 0 0 0 0 0 0 0 0 0 0 0 0 0 0 0 0 0 0 0 0 0 0 0 0 0 0 0 0 0 0 0 0
0 0 0 0 0 0 0 0 0 0 0 0 0 0 0 0 0 0 0 0 0 0 0 0 0 0 0 0 0 0 0 0 0 0 0 0 0 0
0 0 0 0 0 0 0 0 0 0 0 0 0 0 0 0 0 0 0 0 0 0 0 0 0 0 0 0 0 0 0 0 0 0 0 0 0 0
0 0 0 0 0 0 0 0 0 0 0 0 0 0 0 0 0 0 0 0 0 0 0 0 0 0 0 0 0 0 0 0 0 0 0 0 0 0
0 0 0 0 0 0 0 0 0 0 0 0 0 0 0 0 0 0 0 0 0 0 0 0 0 0 0 0 0 0 0 0 0 0 0 0 0 0
Wind_Speed
2 1 1 1 1 1 1 2 2 2 2 1 0 1 1 1 2 2 2 2 2 2 2 3 3 4 6 6 7 7 7 7 7 7 6 6 6 6
2 2 2 1 1 1 1 2 2 2 2 0 0 1 1 1 3 3 2 3 3 4 5 6 6 7 7 8 7 7 7 7 7 6 6 6 5 6
3 3 3 2 1 1 1 1 2 2 3 1 0 1 1 1 2 2 2 2 3 6 7 8 7 7 8 8 7 7 6 6 6 5 6 6 5 5
4 4 4 3 2 2 1 1 2 2 2 2 1 0 1 0 1 2 3 3 3 6 7 8 8 7 8 8 7 7 5 5 5 4 5 5 5 5
4 4 4 3 3 2 1 1 1 1 2 2 1 0 1 0 1 2 3 3 3 4 6 7 7 6 6 6 6 5 5 4 4 4 4 4 4 4
4 4 3 3 3 2 1 1 2 2 2 2 2 1 1 0 1 2 2 2 2 3 4 4 4 5 4 4 4 4 3 3 3 3 3 3 2 3
4 4 4 4 3 2 1 1 2 2 3 3 2 2 2 2 2 2 2 2 2 1 1 1 2 1 2 2 3 3 3 3 3 3 3 3 3 4
5 5 4 4 5 4 3 2 2 3 3 3 3 3 3 2 2 2 2 2 1 1 1 1 1 1 1 2 3 4 4 4 4 5 5 5 5 5
4 4 4 4 4 3 3 2 1 2 3 4 4 4 4 4 4 3 2 2 1 2 1 0 0 1 2 2 4 5 5 5 5 6 6 6 6 6
4 4 4 5 4 3 2 2 2 1 1 3 3 3 4 4 4 3 3 2 1 1 2 1 1 1 1 1 4 6 6 6 7 7 7 7 7 7
5 4 4 4 5 4 2 2 2 2 1 2 3 3 4 4 5 4 3 3 1 1 1 1 1 0 1 2 3 5 6 7 7 8 8 8 8 7
4 4 5 5 5 4 1 1 2 2 1 2 2 2 2 3 5 5 4 3 2 1 2 2 1 1 1 1 2 2 3 5 7 7 8 8 8 5
3 3 4 6 5 4 2 1 1 1 0 1 1 1 1 1 2 3 3 3 3 2 3 3 2 2 1 1 2 2 2 3 3 4 7 8 8 6
2 3 4 6 5 4 2 2 1 1 1 1 1 1 0 0 1 2 3 4 3 3 3 4 2 3 2 1 2 2 2 3 3 3 4 4 6 8
2 4 4 5 4 3 3 3 2 1 1 1 1 0 0 1 0 0 1 2 2 2 3 5 4 3 3 2 2 2 2 2 3 3 3 3 3 3
3 4 4 4 3 2 2 2 1 0 0 0 0 0 0 0 1 1 1 1 1 0 1 3 4 4 3 3 3 3 3 3 2 3 3 4 4 4
3 2 2 2 3 2 2 2 1 1 0 0 1 1 0 0 0 1 1 1 1 1 1 0 2 3 4 3 3 4 4 4 4 3 2 4 4 4
1 2 2 2 2 2 2 2 1 1 0 1 1 1 1 1 1 0 1 1 1 1 1 1 0 1 1 3 6 5 4 4 3 3 3 3 5 4
1 2 2 3 3 2 2 2 2 1 1 1 1 1 1 1 1 1 1 1 1 2 2 1 1 1 2 3 3 6 5 4 3 3 3 4 5 5
1 2 3 3 3 3 2 2 2 2 1 1 1 1 1 1 2 2 2 2 2 2 2 2 2 3 3 3 4 3 6 6 4 4 4 4 5 7
3 3 3 3 3 3 3 3 2 2 2 2 2 2 2 2 2 2 2 3 2 2 3 3 3 3 3 2 3 4 4 6 8 5 4 4 5 5
4 4 4 4 4 3 3 3 3 3 3 2 2 2 2 2 3 3 3 3 3 3 4 4 3 2 3 3 5 5 6 5 5 10 11 9 5 5
5 5 4 4 4 3 3 3 4 3 3 3 3 3 3 3 3 3 3 4 4 4 4 3 3 2 3 4 5 6 8 7 5 5 6 9 14 16
Wind_Direction
358 347 322 292 271 238 215 205 205 228 230 204 246 356 17 31 16 16 20 33 59 82 101 108 109 108 110 108 109 112 116 116 118 124 137 148 150 162
351 352 335 311 312 281 236 220 216 219 236 199 217 343 357 18 34 33 37 55 72 89 94 94 94 97 102 104 109 112 113 115 119 124 130 140 153 161
359 355 341 326 311 297 266 227 214 203 220 246 264 342 359 24 36 49 59 63 80 90 96 96 96 98 101 101 103 107 111 117 124 132 137 137 141 147
355 351 343 340 332 306 270 240 223 208 199 215 216 298 35 40 65 79 68 66 74 86 94 99 101 101 100 100 101 102 107 113 118 129 136 139 144 150
351 346 337 338 330 317 285 242 223 211 198 184 185 158 63 81 91 79 73 65 75 85 87 91 97 101 104 108 109 108 110 114 118 122 126 133 143 153
349 343 331 326 320 307 284 237 198 184 176 165 159 158 129 123 137 116 92 63 66 72 76 87 93 98 106 115 122 125 132 135 136 139 144 151 163 175
349 344 339 338 329 315 297 250 195 184 175 167 166 170 175 164 160 143 123 100 73 73 86 89 99 110 132 150 158 159 167 173 177 183 193 202 208 211
347 343 342 349 348 339 325 277 219 193 185 181 180 183 183 171 155 153 141 134 131 117 116 108 129 178 201 201 194 194 197 199 203 209 215 220 226 232
349 346 348 354 351 351 357 349 304 237 209 196 187 191 185 181 165 159 162 160 164 154 144 153 173 232 230 217 214 214 213 215 218 223 228 233 238 243
351 346 347 345 351 354 4 15 7 350 237 203 195 194 187 179 173 166 154 132 110 145 172 171 195 246 262 247 228 224 225 226 229 231 234 238 242 247
350 354 350 344 343 347 5 19 20 7 51 138 157 160 167 176 164 146 146 144 138 159 173 184 180 244 264 255 237 228 231 235 238 240 242 244 248 253
342 346 352 350 346 356 6 16 19 353 33 93 106 117 140 157 169 174 171 166 157 184 180 179 169 181 235 238 239 233 237 243 244 246 244 246 245 246
338 338 339 350 357 6 19 17 312 299 73 103 105 96 116 152 166 176 185 188 188 206 178 175 182 184 210 258 261 238 232 240 242 245 243 247 244 230
323 321 325 345 360 12 20 12 20 88 103 94 86 72 72 203 203 197 199 207 219 227 188 180 197 190 191 232 263 263 252 245 241 251 257 255 247 235
304 316 330 346 358 10 19 21 38 64 91 88 80 41 273 245 219 150 150 166 196 215 204 200 203 192 199 221 244 256 270 263 239 246 256 254 256 248
333 335 345 2 7 353 357 10 25 52 109 102 291 303 314 255 138 131 125 105 75 330 196 199 203 198 209 219 229 252 253 259 260 255 264 269 260 246
328 343 352 353 357 350 343 343 347 12 37 201 214 226 225 237 232 165 159 152 167 240 299 228 195 211 226 225 236 247 255 257 255 258 259 274 272 259
1 341 336 337 332 330 330 328 325 332 299 235 231 232 242 253 266 202 172 179 201 231 253 274 233 199 219 230 221 245 255 257 265 251 241 265 282 279
350 314 316 316 314 314 309 301 300 301 284 265 251 238 236 243 233 225 200 196 221 242 254 241 218 212 263 287 255 212 232 266 271 266 249 244 264 278
285 289 294 298 296 297 298 291 287 292 278 265 259 249 236 229 229 228 221 218 228 244 261 242 224 220 231 266 285 273 224 235 252 263 269 264 263 268
277 277 280 285 283 279 283 284 278 275 270 258 253 243 231 221 229 233 230 224 226 235 252 262 261 238 233 240 259 269 264 228 225 240 262 275 283 284
266 267 271 271 269 268 270 270 269 268 264 253 250 248 237 228 232 239 233 231 234 239 252 265 270 232 214 235 264 281 286 288 254 233 235 237 258 275
256 258 260 262 262 262 263 261 258 261 255 248 247 247 240 234 234 237 242 244 246 249 253 265 267 247 243 248 264 276 282 287 289 287 273 244 234 247